This is the latest recevied weather packets stored in our database for station/object WB6ANP. If no packets are shown the sender has not sent any weather packets the latest 10 day(s).
| Time | Temp. | Humidity | Pressure | Rain* | Wind** | Luminosity | Snow |
|---|---|---|---|---|---|---|---|
| 1777497068 | 16.67° C | 73% | 1014 hPa | 0 mm | - | 150 W/m² | - |
| 1777496765 | 16.67° C | 74% | 1013.8 hPa | 0 mm | - | 148 W/m² | - |
| 1777496462 | 16.67° C | 74% | 1013.8 hPa | 0 mm | - | 136 W/m² | - |
| 1777496159 | 16.67° C | 73% | 1013.8 hPa | 0 mm | - | 93 W/m² | - |
| 1777495855 | 16.67° C | 73% | 1013.1 hPa | 0 mm | - | 153 W/m² | - |
| 1777495551 | 16.67° C | 73% | 1013 hPa | 0 mm | - | 208 W/m² | - |
| 1777495246 | 16.67° C | 73% | 1013.1 hPa | 0 mm | - | 213 W/m² | - |
| 1777494945 | 16.67° C | 73% | 1013.3 hPa | 0 mm | - | 226 W/m² | - |
| 1777494642 | 17.22° C | 73% | 1013.5 hPa | 0 mm | - | 230 W/m² | - |
| 1777494339 | 17.22° C | 74% | 1013.6 hPa | 0 mm | - | 204 W/m² | - |
| 1777494035 | 17.22° C | 73% | 1013.7 hPa | 0 mm | - | 171 W/m² | - |
| 1777493733 | 17.22° C | 71% | 1013.7 hPa | 0 mm | - | 152 W/m² | - |
| 1777493431 | 17.78° C | 71% | 1013.5 hPa | 0 mm | - | 200 W/m² | - |
| 1777493126 | 17.78° C | 70% | 1013.7 hPa | 0 mm | - | 307 W/m² | - |
| 1777492824 | 17.78° C | 69% | 1013.8 hPa | 0 mm | - | 404 W/m² | - |
| 1777492520 | 18.33° C | 70% | 1014 hPa | 0 mm | - | 423 W/m² | - |
| 1777492216 | 17.78° C | 72% | 1013.7 hPa | 0 mm | - | 641 W/m² | - |
| 1777491914 | 16.67° C | 73% | 1014.2 hPa | 0 mm | - | 398 W/m² | - |
| 1777491609 | 16.67° C | 73% | 1014.6 hPa | 0 mm | - | 206 W/m² | - |
| 1777491307 | 17.22° C | 72% | 1014.2 hPa | 0 mm | - | 286 W/m² | - |
| 1777491004 | 17.22° C | 71% | 1014.7 hPa | 0 mm | - | 402 W/m² | - |
| 1777490699 | 17.78° C | 71% | 1014.6 hPa | 0 mm | - | 373 W/m² | - |
| 1777490396 | 17.22° C | 71% | 1015.1 hPa | 0 mm | - | 448 W/m² | - |
| 1777490093 | 16.67° C | 73% | 1014.9 hPa | 0 mm | - | 482 W/m² | - |
| 1777489790 | 16.11° C | 75% | 1015 hPa | 0 mm | - | 391 W/m² | - |
* Rain latest hour (hover to see other rain measurements)
** Current wind speed in m/s (hover to see current wind gust speed)